Morrisville, VT

5:34 AM EST on December 10, 2019 (GMT -0500)
Morrisville Stowe State

Weather History for KMVL - August, 2019

Change the Weather History Date:

Tuesday, August 27, 2019

  Actual Average Record
Temperature  
Mean Temperature 60 °F 64 °F  
Max Temperature 78 °F 76 °F 84 °F (2012)
Min Temperature 43 °F 52 °F 40 °F (2017)
Degree Days  
Heating Degree Days 4 3  
Month to date heating degree days 46 53  
Since 1 June heating degree days 199 206  
Since 1 July heating degree days 56 83  
Cooling Degree Days 0 2  
Month to date cooling degree days 57 70  
Year to date cooling degree days 239 238  
Since 1 June cooling degree days 238 230  
Growing Degree Days 10 (Base 50)    
Moisture  
Dew Point 48 °F    
Average Humidity 82    
Maximum Humidity 100    
Minimum Humidity 38    
Precipitation  
Precipitation 0.00 in 0.10 in 0.33 in (2006)
Month to date precipitation 3.05 3.60  
Year to date precipitation 26.49 23.33  
Sea Level Pressure  
Sea Level Pressure 30.08 in    
Wind  
Wind Speed 1 mph ()    
Max Wind Speed 13 mph    
Max Gust Speed 14 mph    
Visibility 6.2 miles    
Events Fog    
T = Trace of Precipitation, MM = Missing Value Source: Averaged Metar Reports

Daily Weather History Graph

Daily Weather History Graph

Search for Another Location

Airport or City:

Astronomy

Aug. 27, 2019 Rise Set
Actual Time 6:06 AM EDT 7:36 PM EDT
Civil Twilight 5:36 AM EDT 8:06 PM EDT
Nautical Twilight 4:59 AM EDT 8:43 PM EDT
Astronomical Twilight 4:20 AM EDT 9:22 PM EDT
Moon 2:19 AM EDT (8/27) 6:02 PM EDT (8/27)
Length of Visible Light 14h 30m
Length of Day
13h 29m
Waning Crescent, 11% of the Moon is Illuminated
Aug 27
Waning Crescent
Aug 30
New
Sep 5
First Quarter
Sep 14
Full
Sep 21
Last Quarter

Hourly Weather History & Observations

Time (EDT) Temp. Windchill Dew Point Humidity Pressure Visibility Wind Dir Wind Speed Gust Speed Precip Events Conditions
12:54 AM 46.9 °F - 46.0 °F 97% 30.16 in 10.0 mi Calm Calm - N/A   Clear
1:54 AM 46.9 °F - 45.0 °F 93% 30.15 in 10.0 mi Calm Calm - N/A   Clear
2:43 AM 46.0 °F - 44.1 °F 93% 30.14 in 10.0 mi Calm Calm - N/A   Partly Cloudy
2:54 AM 45.0 °F - 44.1 °F 97% 30.14 in 10.0 mi Calm Calm - N/A   Mostly Cloudy
3:13 AM 44.1 °F - 43.0 °F 96% 30.14 in 1.5 mi Calm Calm - N/A   Overcast
3:29 AM 44.1 °F 42.5 °F 43.0 °F 96% 30.13 in 4.0 mi SSW 3.5 mph - N/A   Mostly Cloudy
3:54 AM 44.1 °F - 43.0 °F 96% 30.14 in 3.0 mi Calm Calm - N/A   Mostly Cloudy
4:02 AM 44.1 °F - 43.0 °F 96% 30.13 in 1.8 mi Calm Calm - N/A   Overcast
4:11 AM 43.0 °F 41.3 °F 43.0 °F 100% 30.13 in 1.0 mi SSW 3.5 mph - N/A   Mist
4:19 AM 44.1 °F - 42.1 °F 93% 30.13 in 2.0 mi Calm Calm - N/A   Overcast
4:28 AM 44.1 °F - 43.0 °F 96% 30.13 in 5.0 mi Calm Calm - N/A   Overcast
4:31 AM 44.1 °F - 43.0 °F 96% 30.13 in 1.2 mi Calm Calm - N/A   Overcast
4:33 AM 44.1 °F - 44.1 °F 100% 30.13 in 0.8 mi Calm Calm - N/A   Mist
4:54 AM 45.0 °F - 44.1 °F 97% 30.13 in 1.0 mi Calm Calm - N/A   Overcast
5:13 AM 45.0 °F - 44.1 °F 97% 30.13 in 0.2 mi Calm Calm - N/A Fog Fog
5:54 AM 45.0 °F - 44.1 °F 97% 30.13 in 1.0 mi Calm Calm - N/A   Mist
6:01 AM 44.1 °F - 44.1 °F 100% 30.13 in 0.8 mi Calm Calm - N/A   Mist
6:54 AM 45.0 °F - 44.1 °F 97% 30.14 in 0.2 mi Calm Calm - N/A Fog Fog
7:54 AM 48.0 °F - 46.9 °F 96% 30.14 in 0.5 mi Calm Calm - N/A Fog Fog
8:08 AM 48.9 °F - 48.9 °F 100% 30.12 in 1.2 mi Calm Calm - N/A   Overcast
8:14 AM 50.0 °F - 48.9 °F 96% 30.12 in 3.0 mi Calm Calm - N/A   Overcast
8:54 AM 52.0 °F - 51.1 °F 97% 30.12 in 10.0 mi Calm Calm - N/A   Partly Cloudy
9:54 AM 63.0 °F - 53.1 °F 70% 30.10 in 10.0 mi SE 3.5 mph - N/A   Clear
10:54 AM 69.1 °F - 55.0 °F 61% 30.09 in 10.0 mi SSE 5.8 mph - N/A   Clear
11:54 AM 73.0 °F - 51.1 °F 46% 30.07 in 10.0 mi South 6.9 mph - N/A   Clear
12:54 PM 72.0 °F - 48.9 °F 44% 30.04 in 10.0 mi South 3.5 mph - N/A   Clear
1:54 PM 75.0 °F - 51.1 °F 43% 30.02 in 10.0 mi Variable 4.6 mph - N/A   Clear
2:54 PM 75.9 °F - 48.9 °F 38% 30.00 in 10.0 mi Variable 6.9 mph - N/A   Clear
3:54 PM 78.1 °F - 53.1 °F 42% 29.98 in 10.0 mi SSW 6.9 mph - N/A   Clear
4:54 PM 75.9 °F - 55.0 °F 48% 29.97 in 10.0 mi SSW 5.8 mph - N/A   Clear
5:54 PM 73.0 °F - 53.1 °F 49% 29.97 in 10.0 mi South 5.8 mph - N/A   Clear
6:54 PM 70.0 °F - 57.0 °F 63% 29.97 in 10.0 mi Variable 3.5 mph - N/A   Clear
7:54 PM 64.9 °F - 57.0 °F 75% 29.97 in 10.0 mi South 4.6 mph - N/A   Clear
8:54 PM 63.0 °F - 55.9 °F 78% 29.99 in 10.0 mi Calm Calm - N/A   Clear
9:54 PM 61.0 °F - 55.9 °F 83% 29.98 in 10.0 mi Calm Calm - N/A   Clear
10:54 PM 59.0 °F - 55.0 °F 87% 29.98 in 10.0 mi Calm Calm - N/A   Clear
11:54 PM 57.9 °F - 55.0 °F 90% 29.97 in 10.0 mi SSW 3.5 mph - N/A   Overcast